Regional Weather Roundup
Issued by NWS Upton, NY

Current Version | Previous Version | Text Only | Print | Product List | Glossary Off
Versions: 1 2 3 4 5 6 7 8 9 10 11 12 13 14 15 16 17 18 19 20 21 22 23 24 25 26 27 28 29 30 31 32 33 34 35 36 37 38 39 40 41 42 43 44 45 46 47 48 49 50
000 ASUS41 KOKX 270918 RWROKX REGIONAL WEATHER ROUNDUP NATIONAL WEATHER SERVICE NEW YORK NY 500 AM EDT WED MAY 27 2015 NOTE: "FAIR" INDICATES FEW OR NO CLOUDS BELOW 12,000 FEET WITH NO SIGNIFICANT WEATHER AND/OR OBSTRUCTIONS TO VISIBILITY. NYZ071-072-176-178-NJZ106-104-271000- NEW YORK CITY METRO AREA CITY SKY/WX TMP DP RH WIND PRES REMARKS CENTRAL PARK CLEAR 71 62 73 SW6 30.18R LAGUARDIA APRT PTCLDY 67 60 78 S8 30.15R KENNEDY INTL PTCLDY 61 57 87 S8 30.17S NEWARK/LIBERTY MOCLDY 70 64 81 S9 30.15S BRNX BOT. GARD N/A 68 61 77 E2 30.16S TETERBORO CLEAR 70 62 76 S3 30.14R $$ NYZ177-179-078>081-271000- LONG ISLAND NEW YORK CITY SKY/WX TMP DP RH WIND PRES REMARKS FARMINGDALE PTCLDY 62 59 90 S9 30.18S ISLIP PTCLDY 63 59 87 S10 30.17S SHIRLEY PTCLDY 64 59 83 S10 30.20R WESTHAMPTON PTCLDY 61 59 93 S7 30.21S MONTAUK POINT N/A 61 57 87 S9 30.21R $$ NYZ052-065-067-271000- HUDSON VALLEY CITY SKY/WX TMP DP RH WIND PRES REMARKS WHITE PLAINS PTCLDY 62 59 90 SE3 30.16R NEWBURGH PTCLDY 70 66 88 VRB3 30.15 MONTGOMERY PTCLDY 62 62 100 CALM 30.13R FOG POUGHKEEPSIE PTCLDY 65 62 90 CALM 30.12R ALBANY MOCLDY 71 63 75 S12 30.08S $$ NJZ001-105-106-008-010-013-015-019>022-104-271000- NEW JERSEY CITY SKY/WX TMP DP RH WIND PRES REMARKS NEWARK/LIBERTY MOCLDY 70 64 81 S9 30.15S TETERBORO CLEAR 70 62 76 S3 30.14R CALDWELL PTCLDY 69 62 78 SW3 30.15S MORRISTOWN PTCLDY 68 63 83 CALM 30.15S SOMERVILLE PTCLDY 66 62 87 CALM 30.13S SUSSEX MOCLDY 66 62 87 CALM 30.15S ANDOVER N/A 68 64 87 CALM 30.14S TRENTON MOCLDY 69 65 86 S7 30.15S MILLVILLE CLEAR 69 66 90 VRB5 30.17S ATLANTIC CITY CLEAR 65 62 90 S7 30.18S WRIGHTSTOWN PTCLDY 65 64 99 S3 30.14S TOMS RIVER CLEAR N/A N/A N/A S6 30.17S BELMAR CLEAR 66 57 72 SW7 30.17S $$ PAZ047>061-062-071-271000- EASTERN PENNSYLVANIA CITY SKY/WX TMP DP RH WIND PRES REMARKS PHILADELPHIA MOCLDY 71 66 84 S7 30.16S ALLENTOWN MOCLDY 72 64 76 S6 30.13S SCRANTON PTCLDY 72 64 76 S7 30.11S $$ CTZ002-004>006-009-010-012-RIZ004-006-007-MAZ004-011-015-271000- SOUTHERN NEW ENGLAND IN CT CITY SKY/WX TMP DP RH WIND PRES REMARKS BRADLEY INTL PTCLDY 65 60 84 S7 30.14S HARTFORD MOCLDY 66 60 81 S7 30.15S DANBURY PTCLDY 65 58 78 SE6 30.17R WTRBRY/OXFORD MOCLDY 64 57 77 S3 30.20R BRIDGEPORT PTCLDY 64 60 87 S12 30.16S MERIDEN PTCLDY 65 60 84 CALM 30.17R NEW HAVEN PTCLDY 61 59 93 CALM 30.17R CHESTER FAIR 63 61 94 SW7 30.19R GROTON CLOUDY 57 55 93 SE6 30.19R WILLIMANTIC PTCLDY 66 60 81 S5 30.17S IN RI CITY SKY/WX TMP DP RH WIND PRES REMARKS PROVIDENCE MOCLDY 62 59 90 SE7 30.19R BLOCK ISLAND MOCLDY 57 54 88 SW12G18 30.21S WESTERLY CLOUDY 59 56 89 S9 30.21R IN MA CITY SKY/WX TMP DP RH WIND PRES REMARKS BOSTON MOCLDY 66 60 81 SW14 30.14S WORCESTER PTCLDY 63 59 87 SW10 30.17R WESTFIELD CLEAR 62 58 86 S6 30.14S PROVINCETOWN MOCLDY 59 55 88 S16 30.19R NANTUCKET CLEAR 60 57 89 SW16 30.24R $$ ANZ330-335-338-340-345-350-353-355-271000- COASTAL MARINE OBSERVATIONS STATION/POSITION TIME SKY/WX TEMP WIND PRES VSBY WAVE AIR SEA DIR/SP/G HT/PER (UTC) (F) (DEG/KT/KT) (MB) (MI) (FT/S) NY HARB ENTRANCE 0850 60 56 200/ 14/ 16 1021.1 3/ 6 4S FIRE IS 0803 56 N/A 4/ 6 20S FIRE ISLAND 0850 59 56 190/ 12/ 14 1022.2 4/ 6 GREAT SOUTH BAY 0800 63 66 230/ 10/ 14 N/A 23SW MTP 0850 58 53 210/ 16/ 17 1022.4 4/ 5 HUDSON CANYON NOT AVBL KINGS POINT 0800 65 57 180/ 7/ 9 1020.4 CENTRAL LI SOUND 0845 60 55 200/ 6/ 6 N/A EASTERN LI SOUND 0800 58 210/ 8/ 10 N/A ROBBINS REEF 0800 69 210/ 8/ 10 1019.8 $$ >>>>>>>>>>>>>>>>>>>>>>>>>>>> KEY <<<<<<<<<<<<<<<<<<<<<<<<<<< > < > SKY/WX - SKY CONDITION/PRESENT WEATHER < > TMP - TEMPERATURE IN FAHRENHEIT < > DP - DEWPOINT IN FAHRENHEIT < > RH - RELATIVE HUMIDITY IN PERCENT < > WIND - DIRECTION AND SPEED IN MPH < > PRES - MEAN SEA LEVEL PRESSURE IN INCHES OF HG < > WCI - WIND CHILL INDEX < > VSB - VISIBILITY IN MILES < > HX - HEAT INDEX < > TC - TEMPERATURE IN CELSIUS < > VRB - VARIABLE WIND DIRECTION < > < >>>>>>>>>>>>>>>>>>>>>>>>>>>> KEY <<<<<<<<<<<<<<<<<<<<<<<<<<<

USA.gov is the U.S. government's official web portal to all federal, state and local government web resources and services.